Time,TemperatureF,DewpointF,PressureIn,WindDirection,WindDirectionDegrees,WindSpeedMPH,WindSpeedGustMPH,Humidity,HourlyPrecipIn,Conditions,Clouds,dailyrainin,SoftwareType,DateUTC
2013-03-04 00:00:00,26.0,20.0,-100.00,North,-999,-999.0,-999.0,78,-99.99,,,0.00,,2013-03-04 07:00:00,
2013-03-04 00:52:00,26.0,20.0,-100.00,North,-999,-999.0,-999.0,78,-99.99,,,0.00,,2013-03-04 07:52:00,
2013-03-04 01:00:00,25.0,19.0,-100.00,North,-999,-999.0,-999.0,78,-99.99,,,0.00,,2013-03-04 08:00:00,
2013-03-04 01:52:00,25.0,19.0,-100.00,North,-999,-999.0,-999.0,78,-99.99,,,0.00,,2013-03-04 08:52:00,
2013-03-04 02:00:00,24.0,18.0,-100.00,North,-999,-999.0,-999.0,78,-99.99,,,0.00,,2013-03-04 09:00:00,
2013-03-04 02:52:00,24.0,18.0,-100.00,North,-999,-999.0,-999.0,78,-99.99,,,0.00,,2013-03-04 09:52:00,
2013-03-04 03:00:00,23.0,17.0,-100.00,North,-999,-999.0,-999.0,78,-99.99,,,0.00,,2013-03-04 10:00:00,
2013-03-04 04:00:00,22.0,16.0,-100.00,North,-999,-999.0,-999.0,78,-99.99,,,0.00,,2013-03-04 11:00:00,
2013-03-04 04:52:00,22.0,16.0,-100.00,North,-999,-999.0,-999.0,78,-99.99,,,0.00,,2013-03-04 11:52:00,
2013-03-04 05:00:00,22.0,16.0,-100.00,North,-999,-999.0,-999.0,78,-99.99,,,0.00,,2013-03-04 12:00:00,
2013-03-04 05:53:00,22.0,16.0,-100.00,North,-999,-999.0,-999.0,78,-99.99,,,0.00,,2013-03-04 12:53:00,
2013-03-04 06:00:00,22.0,16.0,-100.00,North,-999,-999.0,-999.0,78,-99.99,,,0.00,,2013-03-04 13:00:00,
2013-03-04 06:52:00,22.0,16.0,-100.00,North,-999,-999.0,-999.0,78,-99.99,,,0.00,,2013-03-04 13:52:00,
2013-03-04 07:00:00,21.0,15.0,-100.00,North,-999,-999.0,-999.0,78,-99.99,,,0.00,,2013-03-04 14:00:00,
2013-03-04 07:52:00,21.0,15.0,-100.00,North,-999,-999.0,-999.0,78,-99.99,,,0.00,,2013-03-04 14:52:00,
2013-03-04 08:00:00,19.0,14.0,-100.00,North,-999,-999.0,-999.0,78,-99.99,,,0.00,,2013-03-04 15:00:00,
2013-03-04 08:52:00,19.0,14.0,-100.00,North,-999,-999.0,-999.0,78,-99.99,,,0.00,,2013-03-04 15:52:00,
2013-03-04 09:00:00,18.0,12.0,-100.00,North,-999,-999.0,-999.0,78,-99.99,,,0.00,,2013-03-04 16:00:00,
2013-03-04 09:52:00,18.0,12.0,-100.00,North,-999,-999.0,-999.0,78,-99.99,,,0.00,,2013-03-04 16:52:00,
2013-03-04 10:00:00,16.0,11.0,-100.00,North,-999,-999.0,-999.0,78,-99.99,,,0.00,,2013-03-04 17:00:00,
2013-03-04 10:52:00,16.0,11.0,-100.00,North,-999,-999.0,-999.0,78,-99.99,,,0.00,,2013-03-04 17:52:00,
2013-03-04 11:00:00,15.0,10.0,-100.00,North,-999,-999.0,-999.0,79,-99.99,,,0.00,,2013-03-04 18:00:00,
2013-03-04 11:52:00,15.0,10.0,-100.00,North,-999,-999.0,-999.0,79,-99.99,,,0.00,,2013-03-04 18:52:00,
2013-03-04 12:00:00,17.0,11.0,-100.00,North,-999,-999.0,-999.0,78,-99.99,,,0.00,,2013-03-04 19:00:00,
2013-03-04 12:52:00,17.0,11.0,-100.00,North,-999,-999.0,-999.0,78,-99.99,,,0.00,,2013-03-04 19:52:00,
2013-03-04 13:00:00,23.0,18.0,-100.00,North,-999,-999.0,-999.0,78,-99.99,,,0.01,,2013-03-04 20:00:00,
2013-03-04 13:53:00,23.0,18.0,-100.00,North,-999,-999.0,-999.0,78,-99.99,,,0.01,,2013-03-04 20:53:00,
2013-03-04 14:00:00,17.0,11.0,-100.00,North,-999,-999.0,-999.0,78,-99.99,,,0.01,,2013-03-04 21:00:00,
2013-03-04 14:53:00,17.0,11.0,-100.00,North,-999,-999.0,-999.0,78,-99.99,,,0.01,,2013-03-04 21:53:00,
2013-03-04 15:00:00,19.0,14.0,-100.00,North,-999,-999.0,-999.0,78,-99.99,,,0.01,,2013-03-04 22:00:00,
2013-03-04 15:52:00,19.0,14.0,-100.00,North,-999,-999.0,-999.0,78,-99.99,,,0.01,,2013-03-04 22:52:00,
2013-03-04 16:00:00,14.0,9.0,-100.00,North,-999,-999.0,-999.0,78,-99.99,,,0.01,,2013-03-04 23:00:00,
2013-03-04 16:52:00,14.0,9.0,-100.00,North,-999,-999.0,-999.0,78,-99.99,,,0.01,,2013-03-04 23:52:00,
2013-03-04 17:00:00,12.0,7.0,-100.00,North,-999,-999.0,-999.0,78,-99.99,,,0.01,,2013-03-05 00:00:00,
2013-03-04 17:52:00,12.0,7.0,-100.00,North,-999,-999.0,-999.0,78,-99.99,,,0.01,,2013-03-05 00:52:00,
2013-03-04 18:00:00,8.0,3.0,-100.00,North,-999,-999.0,-999.0,78,-99.99,,,0.01,,2013-03-05 01:00:00,
2013-03-04 18:52:00,8.0,3.0,-100.00,North,-999,-999.0,-999.0,78,-99.99,,,0.01,,2013-03-05 01:52:00,
2013-03-04 19:00:00,7.0,-99.9,-100.00,North,-999,-999.0,-999.0,-999,-99.99,,,0.01,,2013-03-05 02:00:00,
2013-03-04 19:53:00,7.0,-99.9,-100.00,North,-999,-999.0,-999.0,-999,-99.99,,,0.01,,2013-03-05 02:53:00,
2013-03-04 20:00:00,8.0,3.0,-100.00,North,-999,-999.0,-999.0,78,-99.99,,,0.00,,2013-03-05 03:00:00,
2013-03-04 20:52:00,8.0,3.0,-100.00,North,-999,-999.0,-999.0,78,-99.99,,,0.00,,2013-03-05 03:52:00,
2013-03-04 21:00:00,9.0,4.0,-100.00,North,-999,-999.0,-999.0,78,-99.99,,,0.00,,2013-03-05 04:00:00,
2013-03-04 21:52:00,9.0,4.0,-100.00,North,-999,-999.0,-999.0,78,-99.99,,,0.00,,2013-03-05 04:52:00,
2013-03-04 23:00:00,3.0,-2.0,-100.00,North,-999,-999.0,-999.0,77,-99.99,,,0.00,,2013-03-05 06:00:00,
2013-03-04 23:52:00,3.0,-2.0,-100.00,North,-999,-999.0,-999.0,77,-99.99,,,0.00,,2013-03-05 06:52:00,